Weather History for Caldwell, ID

Change the Weather History Date:

Saturday, August 30, 2014

  Actual Average (KBOI) Record (KBOI)
Temperature  
Mean Temperature 68 °F 71 °F  
Max Temperature 80 °F 85 °F 105 °F (1955)
Min Temperature 57 °F 56 °F 37 °F (1965)
Degree Days  
Heating Degree Days 0 1  
Month to date heating degree days 5  
Since 1 June heating degree days 77  
Since 1 July heating degree days 13  
Cooling Degree Days 4 7  
Month to date cooling degree days 300  
Year to date cooling degree days 825  
Since 1 June cooling degree days 781  
Growing Degree Days 18 (Base 50)    
Moisture  
Dew Point 42 °F    
Average Humidity 37    
Maximum Humidity 63    
Minimum Humidity 24    
Precipitation  
Precipitation 0.00 in 0.01 in 0.60 in (1896)
Month to date precipitation 0.23  
Year to date precipitation 7.49  
Snow  
Snow 0.00 in 0.00 in 0.00 in (2006)
Month to date snowfall 0.0  
Since 1 July snowfall 0.0  
Snow Depth -    
Sea Level Pressure  
Sea Level Pressure 29.89 in    
Wind  
Wind Speed 10 mph (NW)    
Max Wind Speed 31 mph    
Max Gust Speed 40 mph    
Visibility 10 miles    
Events      
T = Trace of Precipitation, MM = Missing Value Source: NWS Daily Summary

Daily Weather History Graph

Daily Weather History Graph

Search for Another Location

Airport:

Trip Planner

Search our weather history database for the weather conditions in past years. The results will help you decide how hot, cold, wet, or windy it might be!

Date:

Astronomy

Aug. 30, 2014 Rise Set
Actual Time 7:08 AM MDT 8:25 PM MDT
Civil Twilight 6:38 AM MDT 8:54 PM MDT
Nautical Twilight 6:02 AM MDT 9:30 PM MDT
Astronomical Twilight 5:24 AM MDT 10:08 PM MDT
Moon 12:10 PM MDT (8/30) 10:51 PM MDT (8/30)
Length of Visible Light 14h 16m
Length of Day
13h 17m
Waxing Crescent, 23% of the Moon is Illuminated
Aug 30
Waxing Crescent
Sep 2
First Quarter
Sep 8
Full
Sep 15
Last Quarter
Sep 24
New

Hourly Weather History & Observations

Time (MDT) Temp. Dew Point Humidity Pressure Visibility Wind Dir Wind Speed Gust Speed Precip Events Conditions
12:15 AM 73.4 °F 46.4 °F 38% 29.83 in 9.0 mi NNW 5.8 mph - N/A   Partly Cloudy
12:35 AM 71.6 °F 44.6 °F 38% 29.83 in 10.0 mi North 4.6 mph - N/A   Clear
12:55 AM 71.6 °F 44.6 °F 38% 29.84 in 10.0 mi WNW 5.8 mph - N/A   Clear
1:15 AM 71.6 °F 42.8 °F 35% 29.84 in 10.0 mi West 6.9 mph - N/A   Clear
1:35 AM 69.8 °F 42.8 °F 38% 29.84 in 10.0 mi West 8.1 mph - N/A   Clear
1:55 AM 69.8 °F 41.0 °F 35% 29.84 in 10.0 mi West 9.2 mph - N/A   Clear
2:15 AM 69.8 °F 39.2 °F 33% 29.84 in 10.0 mi WNW 13.8 mph - N/A   Clear
2:35 AM 69.8 °F 39.2 °F 33% 29.84 in 10.0 mi WNW 16.1 mph - N/A   Clear
2:55 AM 69.8 °F 39.2 °F 33% 29.84 in 10.0 mi WNW 17.3 mph - N/A   Scattered Clouds
3:15 AM 69.8 °F 39.2 °F 33% 29.84 in 10.0 mi WNW 15.0 mph - N/A   Partly Cloudy
3:35 AM 68.0 °F 39.2 °F 35% 29.84 in 10.0 mi WNW 13.8 mph - N/A   Clear
3:55 AM 66.2 °F 39.2 °F 37% 29.85 in 10.0 mi WNW 11.5 mph - N/A   Clear
4:15 AM 66.2 °F 39.2 °F 37% 29.86 in 10.0 mi WNW 10.4 mph - N/A   Scattered Clouds
4:35 AM 66.2 °F 39.2 °F 37% 29.85 in 10.0 mi WNW 15.0 mph 18.4 mph N/A   Mostly Cloudy
4:55 AM 66.2 °F 39.2 °F 37% 29.85 in 10.0 mi WNW 15.0 mph 20.7 mph N/A   Mostly Cloudy
5:15 AM 66.2 °F 39.2 °F 37% 29.86 in 10.0 mi NW 13.8 mph 23.0 mph N/A   Mostly Cloudy
5:35 AM 66.2 °F 39.2 °F 37% 29.87 in 10.0 mi WNW 11.5 mph - N/A   Mostly Cloudy
5:55 AM 66.2 °F 39.2 °F 37% 29.88 in 10.0 mi WNW 11.5 mph - N/A   Overcast
6:15 AM 66.2 °F 39.2 °F 37% 29.88 in 10.0 mi WNW 11.5 mph - N/A   Mostly Cloudy
6:35 AM 66.2 °F 37.4 °F 35% 29.89 in 10.0 mi WNW 12.7 mph - N/A   Mostly Cloudy
6:55 AM 64.4 °F 39.2 °F 40% 29.89 in 10.0 mi WNW 11.5 mph - N/A   Mostly Cloudy
7:15 AM 64.4 °F 39.2 °F 40% 29.90 in 10.0 mi WNW 10.4 mph - N/A   Partly Cloudy
7:35 AM 64.4 °F 37.4 °F 37% 29.90 in 10.0 mi WNW 11.5 mph - N/A   Partly Cloudy
7:55 AM 64.4 °F 37.4 °F 37% 29.91 in 10.0 mi WNW 11.5 mph - N/A   Clear
8:15 AM 64.4 °F 37.4 °F 37% 29.92 in 10.0 mi NW 12.7 mph - N/A   Clear
8:55 AM 64.4 °F 39.2 °F 40% 29.93 in 10.0 mi NW 15.0 mph - N/A   Clear
9:15 AM 66.2 °F 39.2 °F 37% 29.93 in 10.0 mi NW 12.7 mph - N/A   Clear
9:35 AM 66.2 °F 39.2 °F 37% 29.92 in 10.0 mi NW 15.0 mph - N/A   Clear
9:55 AM 66.2 °F 39.2 °F 37% 29.93 in 10.0 mi NW 16.1 mph - N/A   Clear
10:15 AM 69.8 °F 41.0 °F 35% 29.94 in 10.0 mi NW 12.7 mph - N/A   Clear
10:35 AM 71.6 °F 41.0 °F 33% 29.94 in 10.0 mi NW 13.8 mph 20.7 mph N/A   Clear
10:55 AM 71.6 °F 41.0 °F 33% 29.94 in 10.0 mi NW 10.4 mph - N/A   Clear
11:15 AM 73.4 °F 41.0 °F 31% 29.94 in 10.0 mi NW 13.8 mph - N/A   Clear
11:35 AM 73.4 °F 42.8 °F 33% 29.94 in 10.0 mi NW 11.5 mph 17.3 mph N/A   Clear
11:55 AM 73.4 °F 42.8 °F 33% 29.94 in 10.0 mi NW 15.0 mph - N/A   Clear
12:15 PM 75.2 °F 42.8 °F 31% 29.93 in 10.0 mi NNW 13.8 mph 18.4 mph N/A   Clear
12:35 PM 75.2 °F 42.8 °F 31% 29.93 in 10.0 mi NNW 11.5 mph 17.3 mph N/A   Clear
12:55 PM 75.2 °F 42.8 °F 31% 29.92 in 10.0 mi NW 8.1 mph - N/A   Clear
1:15 PM 77.0 °F 41.0 °F 28% 29.91 in 10.0 mi NNW 15.0 mph - N/A   Clear
1:55 PM 77.0 °F 41.0 °F 28% 29.91 in 10.0 mi NW 11.5 mph - N/A   Clear
2:15 PM 77.0 °F 42.8 °F 29% 29.90 in 10.0 mi North 8.1 mph - N/A   Clear
2:35 PM 78.8 °F 42.8 °F 28% 29.90 in 10.0 mi North 8.1 mph - N/A   Clear
2:55 PM 78.8 °F 42.8 °F 28% 29.89 in 10.0 mi North 10.4 mph - N/A   Clear
3:15 PM 78.8 °F 42.8 °F 28% 29.88 in 10.0 mi North 8.1 mph 16.1 mph N/A   Clear
3:35 PM 78.8 °F 42.8 °F 28% 29.87 in 10.0 mi NE 5.8 mph - N/A   Clear
3:55 PM 80.6 °F 41.0 °F 24% 29.86 in 10.0 mi NE 8.1 mph - N/A   Clear
4:15 PM 80.6 °F 42.8 °F 26% 29.86 in 10.0 mi North 3.5 mph - N/A   Clear
4:35 PM 80.6 °F 42.8 °F 26% 29.86 in 10.0 mi NW 5.8 mph - N/A   Clear
4:55 PM 80.6 °F 42.8 °F 26% 29.85 in 10.0 mi Calm Calm - N/A   Partly Cloudy
5:15 PM 80.6 °F 42.8 °F 26% 29.85 in 10.0 mi North 3.5 mph - N/A   Clear
5:35 PM 78.8 °F 42.8 °F 28% 29.84 in 10.0 mi Calm Calm - N/A   Partly Cloudy
5:55 PM 78.8 °F 42.8 °F 28% 29.84 in 10.0 mi ESE 5.8 mph - N/A   Partly Cloudy
6:15 PM 78.8 °F 44.6 °F 30% 29.83 in 10.0 mi East 5.8 mph - N/A   Partly Cloudy
6:35 PM 78.8 °F 42.8 °F 28% 29.83 in 10.0 mi Calm Calm - N/A   Clear
6:55 PM 77.0 °F 42.8 °F 29% 29.82 in 10.0 mi SSE 3.5 mph - N/A   Partly Cloudy
7:35 PM 75.2 °F 44.6 °F 34% 29.81 in 10.0 mi East 3.5 mph - N/A   Clear
7:55 PM 75.2 °F 42.8 °F 31% 29.82 in 10.0 mi Calm Calm - N/A   Mostly Cloudy
8:15 PM 66.2 °F 46.4 °F 49% 29.89 in 5.0 mi NW 31.1 mph 40.3 mph N/A   Overcast
8:35 PM 62.6 °F 44.6 °F 52% 29.92 in 9.0 mi North 26.5 mph 31.1 mph N/A   Overcast
8:55 PM 60.8 °F 44.6 °F 55% 29.92 in 10.0 mi North 17.3 mph 28.8 mph N/A   Overcast
9:15 PM 59.0 °F 44.6 °F 59% 29.96 in 10.0 mi NNW 11.5 mph 23.0 mph N/A   Overcast
9:35 PM 59.0 °F 44.6 °F 59% 29.98 in 10.0 mi NNW 8.1 mph - N/A   Overcast
9:55 PM 59.0 °F 44.6 °F 59% 29.98 in 10.0 mi West 6.9 mph - N/A   Overcast
10:15 PM 59.0 °F 44.6 °F 59% 29.97 in 10.0 mi West 5.8 mph - N/A   Overcast
10:35 PM 59.0 °F 44.6 °F 59% 29.96 in 10.0 mi West 9.2 mph - N/A   Mostly Cloudy
10:55 PM 57.2 °F 44.6 °F 63% 29.96 in 10.0 mi West 12.7 mph - N/A   Partly Cloudy
11:15 PM 57.2 °F 42.8 °F 59% 29.96 in 10.0 mi West 9.2 mph - N/A   Partly Cloudy
11:35 PM 57.2 °F 42.8 °F 59% 29.96 in 10.0 mi West 4.6 mph - N/A   Partly Cloudy
11:55 PM 57.2 °F 42.8 °F 59% 29.96 in 10.0 mi West 8.1 mph - N/A   Clear